This demonstration page uses our WeatherBlox Daily Observations layout. Learn more.

Left ArrowRight Arrow

41.55636, -103.73856

Hourly Observations for March 29, 2021

Temp ( °F °C ) Dew Point ( °F °C ) Humidity (%) Winds ( mph kmh ) Pressure ( in mb ) Visibility ( mi km ) Precip ( " mm )
12:58 am 00:58 Clear 44 6.6 22 -5.3 43 43 WSW 26 43 29.81 1010 10 16 0.00 0.00
1:58 am 01:58 Clear 45 7.4 23 -4.9 42 42 WSW 26 43 29.76 1008 10 16 0.00 0.00
2:58 am 02:58 Clear 47 8.3 20 -6.4 35 35 WSW 31 50 29.70 1006 10 16 0.00 0.00
3:58 am 03:58 Clear 43 6.3 23 -5.2 44 44 SW 28 44 29.68 1005 10 16 0.00 0.00
4:58 am 04:58 Clear 44 6.4 22 -5.7 42 42 WSW 25 41 29.65 1004 10 16 0.00 0.00
5:58 am 05:58 Clear 46 7.5 21 -6 38 38 WSW 31 50 29.57 1002 10 16 0.00 0.00
6:58 am 06:58 Sunny 46 7.8 22 -5.6 38 38 WSW 26 43 29.62 1003 10 16 0.00 0.00
7:58 am 07:58 Sunny 48 8.7 23 -5.2 37 37 SW 15 24 29.57 1001 10 16 0.00 0.00
8:58 am 08:58 Sunny 51 10.3 25 -3.7 37 37 SW 16 26 29.55 1001 10 16 0.00 0.00
9:58 am 09:58 Sunny 56 13.4 23 -5 28 28 WSW 35 56 29.51 999 10 16 0.00 0.00
10:58 am 10:58 Sunny 58 14.3 24 -4.3 28 28 W 33 54 29.50 999 10 16 0.00 0.00
11:58 am 11:58 Sunny 60 15.4 25 -4.1 26 26 WSW 35 56 29.48 998 10 16 0.00 0.00
12:58 pm 12:58 Sunny 62 16.6 25 -4 24 24 WSW 32 52 29.45 997 10 16 0.00 0.00
1:58 pm 13:58 Sunny 63 17.1 25 -4.1 23 23 WSW 33 54 29.44 997 10 16 0.00 0.00
2:58 pm 14:58 Mostly Sunny 64 17.6 22 -5.8 20 20 W 35 56 29.42 996 10 16 0.00 0.00
3:58 pm 15:58 Mostly Cloudy 56 13.5 27 -2.7 33 33 NW 29 46 29.49 999 10 16 0.00 0.00
4:58 pm 16:58 Sunny 48 8.7 27 -2.9 44 44 N 30 48 29.60 1002 10 16 0.00 0.00
5:58 pm 17:58 Sunny 39 3.8 25 -4.1 57 57 N 31 50 29.66 1004 10 16 0.00 0.00
6:58 pm 18:58 Sunny 30 -1.3 23 -5.2 75 75 N 32 52 29.75 1007 10 16 0.00 0.00
7:58 pm 19:58 Mostly Cloudy 28 -2 20 -6.6 71 71 NNW 30 48 29.76 1008 10 16 0.00 0.00
8:58 pm 20:58 Mostly Cloudy 29 -1.9 20 -6.6 71 71 NNW 28 44 29.78 1009 10 16 0.00 0.00
9:58 pm 21:58 Cloudy 29 -1.6 18 -8 62 62 NNW 30 48 29.73 1007 10 16 0.00 0.00
11:58 pm 23:58 Cloudy 27 -2.6 13 -10.5 55 55 N 20 31 29.87 1011 10 16 0.00 0.00

Powered by AerisWeather